Location: Newark
(42.7133°N, 87.7910°W)
Time: 04:36:09
(UTC+00:00)

Tiros 1 - Pass Details

Date: 23 September 2019
Orbit: 630 x 664 km, 48.4° (Epoch: 21 October)

Event Time Altitude Azimuth Distance (km) Brightness Sun altitude
Rises 18:34:24 0° 253° (WSW) 2,972 10.9 45.6°
Reaches altitude 10° 18:36:46 10° 256° (WSW) 2,057 10.2 45.5°
Maximum altitude 18:41:29 66° 339° (NNW) 710 7.8 45.2°
Drops below altitude 10° 18:46:10 10° 62° (ENE) 2,040 9.5 44.9°
Sets 18:48:31 0° 65° (ENE) 2,945 10.2 44.7°
